Regional Weather Roundup
Issued by NWS

Home | Current Version | Previous Version | Text Only | Print | Product List | Glossary On
Versions: 1 2 3 4 5 6 7 8 9 10 11 12 13 14 15 16 17 18 19 20 21 22 23 24 25 26 27 28 29 30 31 32 33 34 35 36 37 38 39 40 41 42 43 44 45 46 47 48 49 50
000
ASUS45 KBOU 231907
RWRCO

WEATHER ROUNDUP FOR COLORADO
NATIONAL WEATHER SERVICE DENVER/BOULDER CO
100 PM MDT SUN JUL 23 2017

NOTE: "FAIR" INDICATES FEW OR NO CLOUDS BELOW 12000 FEET WITH NO
SIGNIFICANT WEATHER AND/OR OBSTRUCTIONS TO VISIBILITY.

COZ001>005-013-030-031-232000-
...NORTHWEST COLORADO...

CITY           SKY/WX    TMP DP  RH WIND       PRES   REMARKS
CRAIG          FAIR      89  26  10 NE7       30.22F
HAYDEN         FAIR      84  30  14 E8G16     30.25F
MEEKER         FAIR      88  30  12 VRB6      30.22F
RABBIT EARS PA MOCLDY    63  36  36 CALM      30.59S
STEAMBOAT SPGS FAIR      83  35  18 NW5       30.26F
WALDEN         FAIR      77  30  18 S3        30.40F
$$

COZ006>008-011-232000-
...WEST CENTRAL VALLEYS...

CITY           SKY/WX    TMP DP  RH WIND       PRES   REMARKS
GRAND JUNCTION FAIR      91  38  15 N3        30.11F
MONTROSE       FAIR      86  48  26 W7        30.19F
EAGLE          SUNNY     82  45  26 CALM      30.27F
RIFLE          FAIR      87  43  21 NW7       30.16F
DELTA          FAIR      91  44  20 S5        30.15F
NUCLA          FAIR      86  43  22 N7        30.24F
$$

COZ017>023-064>068-232000-
...SOUTHWEST COLORADO...

CITY           SKY/WX    TMP DP  RH WIND       PRES   REMARKS
DURANGO        FAIR      79  46  31 SE7       30.28F
CORTEZ         FAIR      85  49  28 VRB6      30.20F
PAGOSA SPRINGS FAIR      77  41  28 S8        30.36F
TELLURIDE      FAIR      74  45  35 NW8       30.45F
WOLF CREEK PAS NOT AVBL
$$

COZ009-010-012-014-032>034-037-058>063-232000-
...CENTRAL COLORADO...

CITY           SKY/WX    TMP DP  RH WIND       PRES   REMARKS
ASPEN          FAIR      85  34  16 VRB5      30.32F
BUENA VISTA    FAIR      77  42  27 S6        30.38F
COPPER MTN     CLOUDY    64  30  27 SE3       30.71S
BERTHOUD PASS  PTSUNNY   52  36  54 S6        30.74F
COTTONWOOD PAS FAIR      73  36  25 E8G20     30.54S
GUNNISON       FAIR      77  48  35 W5        30.35F
KREMMLING      FAIR      88  16   7 SW3       30.33F
LEADVILLE      FAIR      69  24  18 S10       30.50F
MONARCH PASS   FAIR      59  36  41 NE10G18   30.80S
SALIDA         FAIR      81  38  21 SE12G20   30.42F
SUNLIGHT       PTSUNNY   61  34  36 CALM      30.63S
WILKERSON PASS CLOUDY    57  36  44 CALM      30.69S
$$

COZ069>075-232000-
...SAN LUIS VALLEY/SANGRE DE CRISTO MOUNTAINS...

CITY           SKY/WX    TMP DP  RH WIND       PRES   REMARKS
ALAMOSA        FAIR      76  47  35 NE5       30.36F
DEL NORTE      FAIR      74  43  32 SE10      30.40F
LA VETA PASS   NOT AVBL
SAGUACHE         N/A    N/A N/A N/A MISG        N/A
$$

COZ035-036-038>040-232000-
...NORTHERN COLORADO FRONT RANGE...

CITY           SKY/WX    TMP DP  RH WIND       PRES   REMARKS
DENVER INTL AP FAIR      90  42  18 E15       30.18F
DMNS CITY PARK   N/A     88  44  21 NE13      30.17F
AURORA         MOSUNNY   87  47  24 NE3       30.21F
FRONT RANGE AP FAIR      90  43  19 E3        30.21F
ERIE MUNI ARPT FAIR      87  46  23 E6        30.17F
BOULDER MUN AP FAIR      86  50  28 CALM      30.18F
CENTENNIAL     FAIR      86  40  19 VRB5      30.21F
BROOMFIELD     FAIR      86  45  23 E7        30.21F
FORT COLLINS   NOT AVBL
LONGMONT       FAIR      90  51  26 CALM      30.18F
$$

COZ041-046-047-076>085-087-088-232000-
...PIKES PEAK/PALMER DIVIDE AND SOUTHERN FOOTHILLS...

CITY           SKY/WX    TMP DP  RH WIND       PRES   REMARKS
COLO. SPRINGS  PTSUNNY   84  48  28 E12       30.28F
A. F. ACADEMY  FAIR      81  49  32 SE8       30.28F
SCHRIEVER AFB  FAIR      81  45  27 SE8G17    30.28F
CHEYENNE MTN   FAIR      77  46  33 SE9G18    30.28F
ELLICOTT       FAIR     N/A N/A N/A CALM      30.26F
FALCON           N/A     80  41  25 S7        30.34F
FORT CARSON    FAIR      83  51  33 SW10      30.24F
LIMON          FAIR      84  49  29 E7G21     30.21F
MONUMENT HILL  FAIR      77  50  38 S12G17    30.35F
CANON CITY     SUNNY     88  55  33 MISG      30.21F
WALSENBURG     FAIR      86  48  26 NE5       30.26F
TRINIDAD       FAIR      87  48  25 N9        30.23F
$$

COZ042>045-048>051-090-091-232000-
...NORTHEAST COLORADO...

CITY           SKY/WX    TMP DP  RH WIND       PRES   REMARKS
GREELEY ARPT   FAIR      91  58  32 SE9       30.15F
AKRON          FAIR      89  42  19 SE9G18    30.17F
BURLINGTON     FAIR      88  53  30 SE13      30.15F
WRAY           NOT AVBL
YUMA           FAIR      88  32  13 SE9G16    30.13F
STERLING       FAIR      91  52  25 E6        30.10F
HOLYOKE        FAIR      95  52  23 S9        30.12F
FORT MORGAN    FAIR      92  50  23 SE5       30.15F
$$

COZ086-089-092>099-232000-
...SOUTHEAST COLORADO...

CITY           SKY/WX    TMP DP  RH WIND       PRES   REMARKS
PUEBLO         FAIR      89  51  27 VRB5      30.15F
LA JUNTA       FAIR      91  53  27 CALM      30.13F
LAMAR          FAIR      88  57  34 E10G16    30.10F
SPRINGFIELD      N/A     85  57  38 NE16      30.14F
$$



USA.gov is the U.S. government's official web portal to all federal, state and local government web resources and services.